Temp
3 3 4 5 3 4 5 7 7 7 8 8 7 8 9 9 9 8 8 9 9 9
4 4 4 3 2 3 4 6 7 2 2 3 6 6 7 7 7 7 7 7 7 7
4 3 3 3 3 3 3 5 4 4 4 5 5 5 6 6 6 6 6 6 6 6
3 3 3 3 3 4 4 4 3 4 4 4 4 5 5 5 5 5 5 4 4 5
3 3 3 3 4 3 3 3 3 3 3 4 4 4 4 5 4 4 4 4 3 4
4 4 4 4 3 2 2 2 2 2 2 2 2 2 2 2 2 2 2 1 2 1
4 4 3 3 3 3 3 2 2 1 0 0 0 -0 1 1 1 1 0 0 -0 -0
3 2 2 2 1 2 2 2 1 1 1 1 1 0 -0 -1 -1 -1 -1 -1 -1 -1
2 2 1 1 1 0 -0 -1 -1 -1 -1 -1 -2 -2 -2 -2 -1 -1 -1 -1 -2 -3
2 1 0 -0 -0 -0 -0 -1 -1 -1 -1 -1 -2 -2 -2 -2 -2 -3 -3 -3 -3 -3
1 1 0 -0 -1 -1 -1 -1 -1 -1 -2 -2 -2 -2 -3 -3 -3 -3 -3 -3 -4 -4
1 0 -0 -1 -1 -1 -1 -1 -2 -2 -2 -3 -3 -4 -5 -6 -5 -5 -5 -5 -5 -5
0 -0 -0 -1 -1 -1 -2 -2 -2 -2 -3 -4 -4 -5 -5 -6 -6 -6 -6 -6 -6 -6
-0 -0 -1 -1 -1 -1 -2 -2 -2 -3 -4 -4 -5 -5 -6 -6 -7 -7 -7 -7 -7 -7
Height
1467 1465 1459 1456 1456 1452 1448 1444 1443 1443 1446 1443 1445 1439 1445 1448 1449 1452 1454 1454 1454 1456
1472 1468 1464 1459 1457 1453 1449 1447 1449 1452 1452 1450 1443 1448 1446 1447 1449 1448 1449 1449 1449 1450
1475 1471 1468 1466 1462 1459 1456 1450 1452 1452 1451 1450 1451 1449 1447 1446 1445 1444 1444 1447 1447 1447
1476 1473 1470 1467 1464 1461 1458 1456 1454 1452 1451 1450 1448 1445 1444 1444 1442 1441 1444 1443 1443 1442
1474 1472 1469 1466 1464 1461 1459 1457 1455 1453 1450 1448 1445 1443 1442 1441 1440 1440 1440 1440 1439 1436
1473 1470 1468 1465 1462 1460 1458 1456 1454 1452 1450 1447 1445 1444 1442 1440 1439 1438 1438 1437 1434 1433
1470 1467 1465 1462 1460 1458 1456 1453 1451 1449 1447 1446 1443 1441 1438 1437 1435 1435 1435 1433 1432 1430
1469 1466 1463 1460 1458 1455 1452 1450 1447 1445 1443 1441 1440 1438 1436 1435 1435 1434 1432 1430 1429 1427
1467 1464 1461 1458 1455 1452 1450 1448 1446 1444 1442 1441 1439 1437 1436 1434 1432 1430 1428 1427 1426 1425
1465 1462 1459 1456 1453 1451 1448 1446 1444 1442 1440 1438 1436 1434 1432 1430 1428 1427 1426 1425 1423 1421
1462 1459 1456 1453 1451 1449 1447 1445 1442 1440 1437 1435 1434 1432 1430 1428 1426 1425 1423 1421 1419 1417
1457 1455 1452 1450 1448 1446 1445 1443 1441 1439 1436 1434 1432 1430 1428 1426 1424 1421 1420 1418 1416 1414
1452 1450 1448 1446 1445 1443 1441 1440 1438 1436 1434 1431 1429 1427 1426 1424 1420 1418 1415 1413 1412 1410
1447 1445 1443 1442 1441 1439 1437 1435 1432 1431 1429 1428 1426 1423 1422 1419 1416 1413 1412 1408 1406 1405
Wind_Speed
14 14 11 9 11 10 12 9 8 8 6 4 8 5 5 9 11 11 14 15 18 20
17 19 20 17 15 18 15 11 4 9 8 5 5 1 1 1 4 6 8 9 10 11
14 15 14 13 14 15 13 12 9 9 8 6 4 3 3 3 4 5 6 8 9 11
12 12 13 14 15 14 14 12 11 12 12 11 10 9 9 9 10 11 12 12 14 14
12 13 14 15 14 14 14 13 12 12 12 12 12 12 12 12 12 13 14 15 15 15
12 13 14 14 14 14 13 13 12 12 12 12 12 13 12 12 12 13 14 14 15 15
12 14 15 15 15 15 15 15 15 14 13 12 11 11 14 14 13 12 11 11 12 13
14 15 15 15 15 16 16 15 14 13 13 12 11 11 12 14 13 12 12 11 12 13
14 15 16 17 17 16 13 12 12 12 12 11 11 10 10 12 13 13 13 13 12 10
15 17 17 17 16 14 13 14 14 14 14 13 13 12 12 12 13 13 13 12 11 10
15 16 16 15 12 13 14 14 14 13 13 12 11 12 12 12 14 15 13 13 13 14
17 17 15 12 12 13 13 14 14 13 13 12 12 12 13 14 18 19 19 18 15 15
16 16 12 11 11 12 13 15 14 13 13 13 14 13 13 12 15 18 21 21 20 19
15 13 11 11 13 15 16 16 16 16 15 15 14 14 15 16 16 16 19 21 22 22
Wind_Direction
20 13 12 328 8 30 47 42 359 334 314 15 309 347 277 266 266 274 278 275 271 263
32 31 29 27 31 29 28 29 331 27 23 28 26 322 258 247 267 271 278 282 284 273
13 19 24 20 21 25 26 28 358 344 353 357 353 355 345 321 301 307 312 297 303 299
5 7 8 6 7 7 4 3 355 349 341 340 338 330 326 314 312 312 307 300 293 291
356 356 356 356 351 350 352 350 344 336 328 324 324 318 317 316 313 309 305 306 306 306
336 338 340 340 341 342 341 336 333 331 329 328 328 319 316 315 313 312 310 307 307 307
326 332 335 335 335 333 331 328 330 331 331 330 335 321 324 326 325 321 315 312 308 307
324 328 330 330 331 330 330 333 336 337 336 334 331 325 322 325 328 331 329 325 318 317
319 323 327 329 331 334 339 341 343 342 342 341 339 332 325 324 329 332 330 328 328 325
315 321 325 329 331 337 340 342 341 340 339 339 338 333 327 326 330 330 328 324 322 321
308 316 322 328 332 336 338 339 338 337 337 339 339 335 337 336 331 328 327 322 317 312
309 315 320 323 328 332 333 334 334 335 335 334 339 341 343 334 327 327 327 329 326 316
306 312 313 315 319 323 325 327 327 328 331 333 331 327 320 319 305 309 315 317 317 317
304 304 304 312 320 322 322 323 324 324 324 324 323 319 314 315 316 313 315 306 307 307